星链-3339 (STARLINK-3339 )

导读

STARLINK-3339是美国太空探索技术公司星链星座的一员,于2022年1月6日发射升空,隶属美国航天项目。它依托星链星座低轨布局,主要为全球提供高速卫星互联网接入服务,支持偏远地区网络覆盖,在通信服务、应急连通等领域发挥作用,是星链大规模组网进程中的组成卫星。

基本信息
目录编号:
50820
目录名称:
STARLINK-3339
国际标识:
2022-001T
轨道中心:
EARTH
卫星名称:
星链-3339
卫星全名:
星链-3339 (STARLINK-3339 )
卫星状态:
在轨 (已飞行1702 天)
发射日期:
2022-01-06 UTC
国别 :
美国 (US)
星等 :
--
轨道信息
数据来源 国际轨道数据
星历时间: 2026-09-03T21:49:28+0800
15小时前
查看轨道信息
半长轴: 6848.855km
偏心率: 0.0001005
轨道倾角: 53.160°
近地点辐角 81.323°
升交点赤经 82.690°
平近点角 278.788°
近地点: 470.029km
远地点: 471.407km
周期: 94.013分钟
每日圈数: 15.317074
详细信息
固有亮度:
5
最大亮度:
2.5
卫星平台:
Starlink v1.5
覆盖范围:
全球
运营商:
太空探索技术公司
运营商所在国:
美国
制造商(研发单位):
太空探索技术公司
制造商所在国:
美国
使用方式:
暂无
卫星简介
星链(Starlink)计划是由太空探索技术公司(SpaceX)提出的一个巨型低轨卫星互联网星座项目,计划在2019年至2024年间在太空搭建由约1.2万颗卫星组成的“星链”网络,其中1584颗将部署在地球上空550千米处的近地轨道,并从2020年开始工作。该卫星仍在工作。
2D轨道图
3D轨道图
轨道高度分析图
轨道倾角分析图
轨道综合分析图
查看轨道综合分析图
交会数据列表
事件ID 空间交会对象 最接近时刻(TCA) 交会距离 交会风险概率(CRP) 交会风险指数(CRI) 操作
CDM_260901-140904-743705-082024
2026-09-01T
14:09:28+0000
2.204 km
极远距离
2.255237E-6 低风险 0.42
CDM_260827-233605-082006-528821
2026-08-27T
23:36:41+0000
2.247 km
极远距离
2.16497E-6 低风险 0.42
CDM_260905-001005-082005-635122
2026-09-05T
00:10:57+0000
2.736 km
极远距离
1.508478E-6 低风险 0.39
CDM_260901-222705-082005-631723
2026-09-01T
22:27:52+0000
2.800 km
极远距离
1.439271E-6 低风险 0.38
CDM_260829-131205-082006-567221
2026-08-29T
13:12:25+0000
2.981 km
极远距离
1.347108E-6 低风险 0.38
CDM_260905-133805-082006-889521
2026-09-05T
13:38:38+0000
2.331 km
极远距离
1.156562E-6 低风险 0.36